Crosby, ND

1:25 AM CST on November 17, 2019 (GMT -0600)
Crosby

Weather History for KD50 - October, 2019

Change the Weather History Date:

Wednesday, October 16, 2019

  Actual Average (WUND) Record (WUND)
Temperature  
Mean Temperature 42 °F -  
Max Temperature 60 °F - - (-1)
Min Temperature 24 °F - - (-1)
Degree Days  
Heating Degree Days 23    
Moisture  
Dew Point 32 °F    
Average Humidity 74    
Maximum Humidity 100    
Minimum Humidity 36    
Precipitation  
Precipitation 0.00 in - - ()
Sea Level Pressure  
Sea Level Pressure 29.90 in    
Wind  
Wind Speed 9 mph (SSW)    
Max Wind Speed 22 mph    
Max Gust Speed 24 mph    
Visibility 10 miles    
Events      
Averages and records for this station are not official NWS values.
T = Trace of Precipitation, MM = Missing Value Source: NWS Daily Summary

Daily Weather History Graph

Daily Weather History Graph

Search for Another Location

Airport or City:

Astronomy

Oct. 16, 2019 Rise Set
Actual Time 8:14 AM CDT 7:01 PM CDT
Civil Twilight 7:43 AM CDT 7:33 PM CDT
Nautical Twilight 7:06 AM CDT 8:10 PM CDT
Astronomical Twilight 6:29 AM CDT 8:46 PM CDT
Moon 8:44 PM CDT (10/16) 10:58 AM CDT (10/16)
Length of Visible Light 11h 50m
Length of Day
10h 46m
Waning Gibbous, 92% of the Moon is Illuminated
Oct 16
Waning Gibbous
Oct 21
Last Quarter
Oct 27
New
Nov 4
First Quarter
Nov 12
Full

Hourly Weather History & Observations

Time (CDT) Temp. Windchill Dew Point Humidity Pressure Visibility Wind Dir Wind Speed Gust Speed Precip Events Conditions
12:15 AM 24.8 °F 17.9 °F 24.8 °F 100% 30.16 in 10.0 mi South 5.8 mph - N/A   Clear
12:35 AM 24.8 °F 17.9 °F 24.8 °F 100% 30.15 in 10.0 mi South 5.8 mph - N/A   Clear
12:55 AM 24.8 °F 16.9 °F 24.8 °F 100% 30.15 in 10.0 mi South 6.9 mph - N/A   Clear
1:15 AM - - - N/A% 30.14 in 10.0 mi South 5.8 mph - N/A   Clear
1:35 AM 26.6 °F 20.0 °F 26.6 °F 100% 30.13 in 10.0 mi South 5.8 mph - N/A   Clear
1:55 AM 28.4 °F 21.2 °F 28.4 °F 100% 30.12 in 10.0 mi SSE 6.9 mph - N/A   Clear
2:15 AM 26.6 °F 20.0 °F 26.6 °F 100% 30.12 in 10.0 mi South 5.8 mph - N/A   Clear
2:35 AM 26.6 °F 20.0 °F 26.6 °F 100% 30.11 in 10.0 mi SSE 5.8 mph - N/A   Clear
2:55 AM 26.6 °F 19.1 °F 26.6 °F 100% 30.10 in 10.0 mi SSE 6.9 mph - N/A   Clear
3:35 AM 30.2 °F 21.9 °F 30.2 °F 100% 30.08 in 10.0 mi South 9.2 mph - N/A   Clear
3:55 AM 30.2 °F 21.9 °F 30.2 °F 100% 30.07 in 10.0 mi SSE 9.2 mph - N/A   Clear
4:15 AM 30.2 °F 21.9 °F 30.2 °F 100% 30.06 in 10.0 mi South 9.2 mph - N/A   Clear
4:35 AM 32.0 °F 23.6 °F 30.2 °F 93% 30.05 in 10.0 mi SSE 10.4 mph - N/A   Scattered Clouds
4:55 AM 32.0 °F 23.6 °F 30.2 °F 93% 30.04 in 10.0 mi SSE 10.4 mph - N/A   Scattered Clouds
5:15 AM 32.0 °F 24.2 °F 32.0 °F 100% 30.03 in 10.0 mi South 9.2 mph - N/A   Scattered Clouds
5:35 AM 32.0 °F 24.2 °F 32.0 °F 100% 30.02 in 10.0 mi South 9.2 mph - N/A   Mostly Cloudy
5:55 AM 32.0 °F 24.2 °F 32.0 °F 100% 30.01 in 10.0 mi South 9.2 mph - N/A   Mostly Cloudy
6:15 AM 33.8 °F 27.0 °F 32.0 °F 93% 30.01 in 10.0 mi SSE 8.1 mph - N/A   Overcast
6:35 AM 33.8 °F 25.8 °F 32.0 °F 93% 30.00 in 10.0 mi South 10.4 mph - N/A   Overcast
6:55 AM 33.8 °F 25.8 °F 32.0 °F 93% 29.99 in 10.0 mi SSE 10.4 mph - N/A   Overcast
7:15 AM 35.6 °F 27.1 °F 32.0 °F 87% 29.98 in 10.0 mi SSE 12.7 mph - N/A   Overcast
7:35 AM 35.6 °F 28.0 °F 32.0 °F 87% 29.98 in 10.0 mi South 10.4 mph - N/A   Overcast
7:55 AM 35.6 °F 28.0 °F 32.0 °F 87% 29.96 in 10.0 mi SSE 10.4 mph 19.6 mph N/A   Overcast
8:15 AM 35.6 °F 27.1 °F 32.0 °F 87% 29.94 in 10.0 mi SSE 12.7 mph - N/A   Overcast
8:35 AM 35.6 °F 27.1 °F 32.0 °F 87% 29.94 in 10.0 mi SSE 12.7 mph 21.9 mph N/A   Overcast
9:15 AM 37.4 °F 29.3 °F 32.0 °F 81% 29.94 in 10.0 mi South 12.7 mph 19.6 mph N/A   Scattered Clouds
9:35 AM 37.4 °F 27.8 °F 33.8 °F 87% 29.92 in 10.0 mi SSE 17.3 mph - N/A   Mostly Cloudy
9:55 AM 39.2 °F 30.2 °F 33.8 °F 81% 29.91 in 10.0 mi South 17.3 mph - N/A   Scattered Clouds
10:15 AM 39.2 °F 31.2 °F 33.8 °F 81% 29.91 in 10.0 mi SSE 13.8 mph 21.9 mph N/A   Clear
10:35 AM 39.2 °F 30.8 °F 33.8 °F 81% 29.90 in 10.0 mi SSE 15.0 mph - N/A   Clear
10:55 AM 41.0 °F 32.8 °F 33.8 °F 76% 29.89 in 10.0 mi South 16.1 mph 23.0 mph N/A   Clear
11:15 AM 42.8 °F 35.8 °F 33.8 °F 70% 29.91 in 10.0 mi SSW 13.8 mph 24.2 mph N/A   Clear
11:35 AM 44.6 °F 36.1 °F 32.0 °F 61% 29.88 in 10.0 mi South 21.9 mph - N/A   Clear
11:55 AM 46.4 °F 38.7 °F 33.8 °F 62% 29.87 in 10.0 mi South 20.7 mph - N/A   Clear
12:15 PM 46.4 °F 39.8 °F 33.8 °F 62% 29.87 in 10.0 mi South 16.1 mph - N/A   Clear
12:35 PM 48.2 °F - 33.8 °F 58% 29.86 in 10.0 mi SSW 15.0 mph 23.0 mph N/A   Clear
12:55 PM 50.0 °F - 33.8 °F 54% 29.85 in 10.0 mi SSW 18.4 mph - N/A   Clear
1:15 PM 51.8 °F - 33.8 °F 50% 29.85 in 10.0 mi SW 18.4 mph - N/A   Clear
1:35 PM 51.8 °F - 33.8 °F 50% 29.84 in 10.0 mi SW 18.4 mph - N/A   Clear
1:55 PM 51.8 °F - 33.8 °F 50% 29.83 in 10.0 mi SW 15.0 mph 20.7 mph N/A   Clear
2:15 PM 53.6 °F - 33.8 °F 47% 29.83 in 10.0 mi SSW 12.7 mph - N/A   Clear
2:35 PM 55.4 °F - 33.8 °F 44% 29.83 in 10.0 mi SW 12.7 mph - N/A   Clear
2:55 PM 57.2 °F - 33.8 °F 41% 29.81 in 10.0 mi SSW 10.4 mph - N/A   Clear
3:15 PM 57.2 °F - 33.8 °F 41% 29.81 in 10.0 mi SSW 8.1 mph 13.8 mph N/A   Clear
3:35 PM 59.0 °F - 33.8 °F 39% 29.81 in 10.0 mi SW 11.5 mph - N/A   Clear
3:55 PM 59.0 °F - 33.8 °F 39% 29.80 in 10.0 mi SW 11.5 mph - N/A   Clear
4:15 PM 59.0 °F - 33.8 °F 39% 29.80 in 10.0 mi SW 10.4 mph - N/A   Clear
4:35 PM 60.8 °F - 33.8 °F 36% 29.80 in 10.0 mi SW 8.1 mph - N/A   Clear
4:55 PM 60.8 °F - 33.8 °F 36% 29.80 in 10.0 mi WSW 11.5 mph - N/A   Clear
5:15 PM 60.8 °F - 33.8 °F 36% 29.79 in 10.0 mi WSW 9.2 mph - N/A   Clear
5:35 PM 60.8 °F - 33.8 °F 36% 29.78 in 10.0 mi SW 8.1 mph - N/A   Clear
5:55 PM 60.8 °F - 35.6 °F 39% 29.78 in 10.0 mi SW 8.1 mph - N/A   Clear
6:15 PM 59.0 °F - 35.6 °F 42% 29.78 in 10.0 mi SW 6.9 mph - N/A   Clear
6:35 PM 55.4 °F - 35.6 °F 47% 29.78 in 10.0 mi SSW 6.9 mph - N/A   Clear
6:55 PM 51.8 °F - 35.6 °F 54% 29.78 in 9.0 mi SSW 6.9 mph - N/A   Clear
7:15 PM 46.4 °F 42.4 °F 33.8 °F 62% 29.78 in 9.0 mi SSW 8.1 mph - N/A   Clear
7:35 PM 46.4 °F 41.9 °F 35.6 °F 66% 29.78 in 10.0 mi SSW 9.2 mph - N/A   Clear
7:55 PM 44.6 °F 39.7 °F 33.8 °F 66% 29.78 in 10.0 mi SW 9.2 mph - N/A   Clear
8:15 PM 41.0 °F 36.4 °F 33.8 °F 76% 29.78 in 10.0 mi SSW 6.9 mph - N/A   Clear
8:35 PM 41.0 °F 35.2 °F 33.8 °F 76% 29.78 in 10.0 mi SSW 9.2 mph - N/A   Clear
8:55 PM 39.2 °F 33.0 °F 33.8 °F 81% 29.78 in 10.0 mi SSW 9.2 mph - N/A   Clear
9:15 PM 39.2 °F 33.6 °F 33.8 °F 81% 29.78 in 10.0 mi SSW 8.1 mph - N/A   Clear
9:35 PM 41.0 °F 35.8 °F 33.8 °F 76% 29.78 in 10.0 mi SSW 8.1 mph - N/A   Clear
9:55 PM 37.4 °F 32.1 °F 33.8 °F 87% 29.78 in 10.0 mi SW 6.9 mph - N/A   Clear
10:15 PM 39.2 °F 34.2 °F 33.8 °F 81% 29.78 in 10.0 mi SW 6.9 mph - N/A   Clear
10:35 PM 39.2 °F 35.0 °F 33.8 °F 81% 29.77 in 10.0 mi SW 5.8 mph - N/A   Clear
10:55 PM 37.4 °F 32.8 °F 33.8 °F 87% 29.77 in 10.0 mi SSW 5.8 mph - N/A   Clear
11:15 PM 35.6 °F 30.7 °F 32.0 °F 87% 29.78 in 10.0 mi South 5.8 mph - N/A   Clear
11:35 PM 39.2 °F 35.0 °F 33.8 °F 81% 29.77 in 10.0 mi SSW 5.8 mph - N/A   Clear
11:55 PM 35.6 °F 29.2 °F 33.8 °F 93% 29.77 in 10.0 mi SSW 8.1 mph - N/A   Clear